sat.trackr.live / text

‹ back to catalog

ONEWEB-0400

NORAD 50480 · 2021-132M

PAYLOAD ACTIVE UNKNOWN

§ Identity

Operator
Country
UK
Launch date
2021-12-27
Launch site
TYMSC
Launch vehicle
Mass (kg)
RCS (m²)

Purposes: comms

External: N2YO · Heavens-Above · Gunter

§ Orbital elements

Epoch: 2026-09-19T22:19:35.005728Z

Period
109.20 min
Inclination
87.9163°
Eccentricity
0.0001830
Mean motion
13.18686394 rev/d
Perigee alt
1,188.4 km
Apogee alt
1,191.1 km
Semi-major
7,567.9 km
B*
4.6010e-5
RAAN
316.6245°
Arg perigee
100.9942°
Mean anomaly
259.1396°
Rev number
23,409

§ Raw data

ONEWEB-04001 50480U 21132M   26262.93026627  .00000031  00000+0  46010-4 0  99972 50480  87.9163 316.6245 0001830 100.9942 259.1396 13.18686394234099

JSON: /api/v1/satellites/50480 · /tle

For live sub-satellite position, see the globe view (requires WebGL).

§ Visibility from observer

Set your observer location to see the next 7 days of passes ≥ 10°. The values pass through the URL so the page stays shareable.

No JS? Fill the form by hand. The geolocation button needs JavaScript.